Location: Vancouver
(49.2500°N, 123.1330°W)
Time: 11:16:20
(UTC-08:00)

AO-27 - Visible Passes

Search period start: 28 February 2015 00:00
Search period end: 10 March 2015 01:00
Orbit: 787 x 797 km, 98.7° (Epoch: 27 February)

Date Brightness Start Highest point End Pass type
(mag) Time Alt. Az. Time Alt. Az. Time Alt. Az.
28 Feb 9.6 03:18:38 10° N 03:20:31 22° N 03:20:31 22° N visible
28 Feb 9.8 05:00:30 10° NNW 05:01:18 11° NW 05:01:18 11° NW visible
01 Mar 9.8 02:49:39 10° NNE 02:51:24 22° NNE 02:51:24 22° NNE visible
01 Mar 9.6 04:30:18 10° NNW 04:32:10 16° NNW 04:32:10 16° NNW visible
02 Mar 10.1 02:20:53 10° NNE 02:22:16 18° NNE 02:22:16 18° NNE visible
02 Mar 9.4 04:00:48 10° N 04:03:03 21° NNW 04:03:03 21° NNW visible
03 Mar 10.4 01:52:22 10° NE 01:53:09 14° NE 01:53:09 14° NE visible
03 Mar 9.3 03:31:34 10° N 03:33:55 25° N 03:33:55 25° N visible
04 Mar 9.4 03:02:32 10° NNE 03:04:47 26° N 03:04:47 26° N visible
04 Mar 9.6 04:43:35 10° NNW 04:45:34 15° NW 04:45:34 15° NW visible
05 Mar 9.7 02:33:40 10° NNE 02:35:40 23° NNE 02:35:40 23° NNE visible
05 Mar 9.3 04:13:53 10° N 04:16:26 21° NNW 04:16:26 21° NNW visible
06 Mar 10.1 02:05:01 10° NNE 02:06:32 18° NE 02:06:32 18° NE visible
06 Mar 9.1 03:44:33 10° N 03:47:19 27° NNW 03:47:19 27° NNW visible
07 Mar 10.5 01:36:44 10° NE 01:37:25 13° NE 01:37:25 13° NE visible
07 Mar 9.1 03:15:26 10° N 03:18:11 31° N 03:18:11 31° N visible
07 Mar 9.7 04:57:05 10° NNW 04:58:58 12° NW 04:58:58 12° NW visible
08 Mar 9.3 03:46:29 10° NNE 03:49:04 30° NNE 03:49:04 30° NNE visible
08 Mar 9.3 05:27:02 10° NNW 05:29:50 19° NW 05:29:50 19° NW visible
09 Mar 9.7 03:17:44 10° NNE 03:19:56 24° NE 03:19:56 24° NE visible
09 Mar 9.0 04:57:34 10° N 05:00:43 27° NW 05:00:43 27° NW visible
